This demonstration page uses our WeatherBlox Daily Observations layout. Learn more.

Left ArrowRight Arrow

40.92945, -100.16068

Hourly Observations for December 16, 2020

Temp ( °F °C ) Dew Point ( °F °C ) Humidity (%) Winds ( mph kmh ) Pressure ( in mb ) Visibility ( mi km ) Precip ( " mm )
12:15 am 00:15 Cloudy with Mist and Fog 20 -6.8 18 -7.9 92 92 Calm 30.16 1021 5 8.0467 0 0
12:35 am 00:35 Cloudy with Mist and Fog 18 -7.6 16 -9 90 90 Calm 30.16 1021 5 8.0467 0 0
12:55 am 00:55 Partly Cloudy with Mist and Fog 19 -7.5 17 -8.6 92 92 Calm 30.16 1021 2 3.21868 0 0
1:15 am 01:15 Mostly Cloudy with Freezing Fog 14 -9.8 11 -11.4 88 88 Calm 30.18 1022 0.25 0.402335 0 0
1:35 am 01:35 Cloudy with Freezing Fog 10 -12.1 7 -13.9 87 87 W 3 6 30.2 1023 N/A 0 0
1:55 am 01:55 Cloudy with Freezing Fog 9 -12.8 6 -14.3 89 89 W 5 7 30.2 1023 0.25 0.402335 0 0
2:15 am 02:15 Cloudy with Freezing Fog 7 -13.7 4 -15.6 86 86 W 5 7 30.21 1023 0.25 0.402335 0 0
2:35 am 02:35 Cloudy with Freezing Fog 5 -14.9 2 -16.9 85 85 NW 5 7 30.22 1023 N/A 0 0
2:55 am 02:55 Cloudy with Freezing Fog 4 -15.5 1 -17.5 85 85 Calm 30.23 1024 0.25 0.402335 0 0
3:15 am 03:15 Cloudy with Freezing Fog 3 -15.9 0 -17.9 85 85 N 3 6 30.23 1024 0.25 0.402335 0 0
3:35 am 03:35 Cloudy with Freezing Fog 4 -15.5 1 -17.5 85 85 Calm 30.21 1023 0.25 0.402335 0 0
3:55 am 03:55 Cloudy with Freezing Fog 3 -15.9 0 -17.9 85 85 Calm 30.2 1023 0.25 0.402335 0 0
4:15 am 04:15 Cloudy with Fog N/A N/A N/A Calm N/A 0.25 0.402335 0 0
4:35 am 04:35 Cloudy with Fog N/A N/A N/A Calm N/A 0.25 0.402335 0 0
4:55 am 04:55 Cloudy with Fog N/A N/A N/A Calm N/A 0.25 0.402335 0 0
5:15 am 05:15 Cloudy with Fog N/A N/A N/A Calm N/A 0.25 0.402335 0 0
5:35 am 05:35 Cloudy with Fog N/A N/A N/A Calm N/A 0.25 0.402335 0 0
5:55 am 05:55 Cloudy with Fog N/A N/A N/A Calm N/A 0.25 0.402335 0 0
6:15 am 06:15 Cloudy with Fog N/A N/A N/A Calm N/A 0.5 0.80467 0 0
6:35 am 06:35 Cloudy with Mist and Fog N/A N/A N/A WNW 5 7 N/A 1 1.60934 0 0
6:55 am 06:55 Cloudy with Fog N/A N/A N/A WNW 3 6 N/A 0.5 0.80467 0 0
7:15 am 07:15 Cloudy with Fog N/A N/A N/A Calm N/A 0.5 0.80467 0 0
7:35 am 07:35 Clear N/A N/A N/A Calm N/A 7 11.26538 0 0
7:55 am 07:55 Clear with Mist and Fog 10 -12.4 7 -13.8 89 89 Calm 30.16 1021 4 6.43736 0 0
8:15 am 08:15 Sunny -1 -18.1 -5 -20.3 83 83 Calm 30.22 1023 7 11.26538 0 0
8:35 am 08:35 Sunny -1 -18.5 -5 -20.7 83 83 W 3 6 30.22 1024 10 16.0934 0 0
8:55 am 08:55 Partly Cloudy 2 -16.9 -2 -19.1 83 83 Calm 30.2 1023 7 11.26538 0 0
9:15 am 09:15 Partly Cloudy with Mist and Fog 7 -13.8 4 -15.7 86 86 W 5 7 30.19 1022 3 4.82802 0 0
9:35 am 09:35 Sunny 9 -12.6 6 -14.3 87 87 Calm 30.18 1022 10 16.0934 0 0
9:55 am 09:55 Sunny 11 -11.5 8 -13.1 88 88 Calm 30.17 1022 10 16.0934 0 0
10:15 am 10:15 Sunny 13 -10.7 10 -12.2 89 89 Calm 30.16 1021 10 16.0934 0 0
10:35 am 10:35 Sunny 13 -10.5 10 -12 89 89 Calm 30.16 1021 10 16.0934 0 0
10:55 am 10:55 Sunny 15 -9.7 12 -11.2 89 89 W 5 7 30.15 1021 10 16.0934 0 0
11:15 am 11:15 Sunny 17 -8.3 15 -9.7 90 90 WNW 8 13 30.13 1020 10 16.0934 0 0
11:35 am 11:35 Sunny 18 -7.9 15 -9.4 89 89 WNW 7 11 30.13 1020 10 16.0934 0 0
11:55 am 11:55 Sunny 20 -6.6 18 -8 90 90 W 6 9 30.09 1019 10 16.0934 0 0
12:15 pm 12:15 Sunny 20 -6.5 18 -8 89 89 W 5 7 30.09 1019 10 16.0934 0 0
12:35 pm 12:35 Sunny 21 -6.1 18 -7.9 87 87 W 6 9 30.1 1019 10 16.0934 0 0
12:55 pm 12:55 Sunny 23 -4.9 20 -6.7 87 87 WNW 5 7 30.08 1018 10 16.0934 0 0
1:15 pm 13:15 Sunny 27 -3 23 -4.9 87 87 WNW 13 20 30.05 1017 10 16.0934 0 0
1:35 pm 13:35 Partly Cloudy 29 -1.7 25 -4 85 85 WNW 14 22 30.03 1017 10 16.0934 0 0
1:55 pm 13:55 Partly Cloudy 30 -1.2 26 -3.6 84 84 WNW 12 19 30.03 1017 10 16.0934 0 0
2:15 pm 14:15 Sunny 31 -0.7 26 -3.2 83 83 WNW 12 19 30.02 1017 10 16.0934 0 0
2:35 pm 14:35 Sunny 31 -0.5 26 -3.1 83 83 WNW 10 17 30.02 1017 10 16.0934 0 0
2:55 pm 14:55 Sunny 30 -1 25 -3.8 82 82 WNW 8 13 30.03 1017 10 16.0934 0 0
3:15 pm 15:15 Sunny 31 -0.5 26 -3.5 80 80 WNW 9 15 30.02 1017 10 16.0934 0 0
3:35 pm 15:35 Sunny 32 0 26 -3.5 78 78 NW 5 7 30.02 1016 10 16.0934 0 0
3:55 pm 15:55 Sunny 32 0 26 -3.5 78 78 NW 3 6 30.03 1017 10 16.0934 0 0
4:15 pm 16:15 Sunny 31 -0.3 25 -3.7 78 78 N 3 6 30.03 1017 10 16.0934 0 0
4:35 pm 16:35 Sunny 29 -1.4 24 -4.2 81 81 NW 3 6 30.05 1018 10 16.0934 0 0
4:55 pm 16:55 Sunny 28 -2.1 24 -4.2 86 86 Calm 30.07 1018 10 16.0934 0 0
5:15 pm 17:15 Clear 27 -2.9 23 -4.9 86 86 Calm 30.08 1018 10 16.0934 0 0
5:35 pm 17:35 Clear 25 -3.9 23 -4.8 94 94 WSW 3 6 30.09 1019 10 16.0934 0 0
5:55 pm 17:55 Clear 22 -5.6 20 -6.5 93 93 W 5 7 30.1 1019 10 16.0934 0 0
6:15 pm 18:15 Clear 24 -4.7 21 -5.9 91 91 W 8 13 30.09 1019 10 16.0934 0 0
6:35 pm 18:35 Clear 24 -4.6 21 -6.2 89 89 W 10 17 30.1 1019 10 16.0934 0 0
6:55 pm 18:55 Clear 24 -4.5 21 -5.9 90 90 W 10 17 30.1 1019 10 16.0934 0 0
7:15 pm 19:15 Clear 23 -4.8 20 -6.5 88 88 W 12 19 30.11 1019 10 16.0934 0 0
7:35 pm 19:35 Clear 26 -3.5 22 -5.4 87 87 WNW 10 17 30.09 1019 10 16.0934 0 0
7:55 pm 19:55 Clear 32 -0.2 26 -3.4 79 79 WNW 14 22 30.06 1018 10 16.0934 0 0
8:15 pm 20:15 Clear 32 0 26 -3.4 78 78 WNW 13 20 30.07 1018 10 16.0934 0 0
8:35 pm 20:35 Clear 27 -3 22 -5.4 84 84 WNW 8 13 30.1 1019 10 16.0934 0 0
8:55 pm 20:55 Partly Cloudy 26 -3.2 22 -5.3 86 86 NW 8 13 30.11 1020 10 16.0934 0 0
9:15 pm 21:15 Cloudy 27 -3 23 -5.1 86 86 WNW 10 17 30.12 1020 10 16.0934 0 0
9:35 pm 21:35 Cloudy 27 -2.7 23 -4.9 85 85 NW 6 9 30.11 1020 10 16.0934 0 0
9:55 pm 21:55 Mostly Cloudy 29 -1.7 24 -4.3 83 83 WNW 13 20 30.11 1020 10 16.0934 0 0
10:15 pm 22:15 Partly Cloudy 30 -1 25 -4.1 80 80 NW 9 15 30.11 1020 10 16.0934 0 0
10:35 pm 22:35 Clear 27 -3 22 -5.3 84 84 NW 8 13 30.13 1020 10 16.0934 0 0
10:55 pm 22:55 Clear 24 -4.3 20 -6.5 85 85 WNW 7 11 30.16 1021 10 16.0934 0 0
11:15 pm 23:15 Clear 23 -5.2 20 -6.9 88 88 WNW 12 19 30.17 1022 10 16.0934 0 0
11:35 pm 23:35 Clear 21 -6 18 -7.7 88 88 WNW 13 20 30.18 1022 10 16.0934 0 0
11:55 pm 23:55 Clear 26 -3.2 22 -5.6 84 84 WNW 10 17 30.16 1021 10 16.0934 0 0

Powered by AerisWeather